This demonstration page uses our WeatherBlox Daily Observations layout. Learn more.

Left ArrowRight Arrow

34.16533, -84.80231

Hourly Observations for March 8, 2022

Temp ( °F °C ) Dew Point ( °F °C ) Humidity (%) Winds ( mph kmh ) Pressure ( in mb ) Visibility ( mi km ) Precip ( " mm )
12:15 am 00:15 Cloudy 52 11 46 8 82 82 NNW 8 13 30.11 1020 10 16 0.00 0.00
12:35 am 00:35 Cloudy 52 11 46 8 82 82 VRB 5 7 30.11 1020 10 16 0.00 0.00
12:55 am 00:55 Cloudy 50 10 45 7 82 82 VRB 7 11 30.12 1020 10 16 0.00 0.00
1:15 am 01:15 Cloudy 50 10 45 7 82 82 N 8 13 30.12 1020 10 16 0.00 0.00
1:35 am 01:35 Cloudy 48 9 43 6 82 82 VRB 5 7 30.12 1020 10 16 0.00 0.00
1:55 am 01:55 Cloudy 48 9 43 6 82 82 VRB 3 6 30.12 1020 10 16 0.00 0.00
2:15 am 02:15 Cloudy 48 9 43 6 82 82 VRB 6 9 30.12 1020 10 16 0.00 0.00
2:35 am 02:35 Cloudy 48 9 43 6 82 82 VRB 7 11 30.13 1020 10 16 0.00 0.00
2:55 am 02:55 Cloudy 48 9 41 5 76 76 VRB 3 6 30.12 1020 10 16 0.00 0.00
3:15 am 03:15 Cloudy 46 8 41 5 82 82 VRB 5 7 30.13 1020 10 16 0.00 0.00
3:35 am 03:35 Cloudy 46 8 41 5 82 82 VRB 6 9 30.13 1020 10 16 0.00 0.00
3:55 am 03:55 Cloudy 46 8 39 4 76 76 VRB 7 11 30.13 1020 10 16 0.00 0.00
4:15 am 04:15 Cloudy 46 8 39 4 76 76 VRB 6 9 30.13 1020 10 16 0.00 0.00
4:35 am 04:35 Mostly Cloudy 46 8 39 4 76 76 NW 6 9 30.13 1020 10 16 0.00 0.00
4:55 am 04:55 Partly Cloudy 45 7 39 4 81 81 VRB 3 6 30.14 1021 10 16 0.00 0.00
5:15 am 05:15 Partly Cloudy 45 7 39 4 81 81 Calm 30.14 1021 10 16 0.00 0.00
5:35 am 05:35 Partly Cloudy 45 7 39 4 81 81 WNW 5 7 30.14 1021 10 16 0.00 0.00
5:55 am 05:55 Mostly Cloudy 45 7 39 4 81 81 VRB 3 6 30.15 1021 10 16 0.00 0.00
6:15 am 06:15 Mostly Cloudy 45 7 39 4 81 81 VRB 7 11 30.14 1021 10 16 0.00 0.00
6:35 am 06:35 Cloudy 45 7 39 4 81 81 VRB 7 11 30.15 1021 10 16 0.00 0.00
6:55 am 06:55 Cloudy 45 7 37 3 76 76 Calm 30.16 1021 10 16 0.00 0.00
7:15 am 07:15 Cloudy 45 7 37 3 76 76 Calm 30.16 1021 10 16 0.00 0.00
7:35 am 07:35 Mostly Cloudy 45 7 37 3 76 76 VRB 7 11 30.16 1021 10 16 0.00 0.00
7:55 am 07:55 Mostly Cloudy 45 7 37 3 76 76 VRB 3 6 30.16 1021 10 16 0.00 0.00
8:15 am 08:15 Cloudy 45 7 37 3 76 76 VRB 5 7 30.17 1022 10 16 0.00 0.00
8:35 am 08:35 Cloudy 45 7 37 3 76 76 VRB 5 7 30.17 1022 10 16 0.00 0.00
8:55 am 08:55 Cloudy 45 7 37 3 76 76 VRB 7 11 30.17 1022 10 16 0.00 0.00
9:15 am 09:15 Cloudy 45 7 37 3 76 76 Calm 30.17 1022 10 16 0.00 0.00
9:35 am 09:35 Cloudy 45 7 37 3 76 76 VRB 3 6 30.17 1022 10 16 0.00 0.00
9:55 am 09:55 Cloudy 46 8 37 3 71 71 VRB 3 6 30.17 1022 10 16 0.00 0.00
10:15 am 10:15 Cloudy 46 8 39 4 76 76 NNE 6 9 30.16 1021 10 16 0.00 0.00
10:35 am 10:35 Cloudy 46 8 39 4 76 76 VRB 5 7 30.16 1021 10 16 0.00 0.00
10:55 am 10:55 Cloudy 48 9 39 4 71 71 Calm 30.15 1021 10 16 0.00 0.00
11:15 am 11:15 Cloudy 48 9 39 4 71 71 Calm 30.14 1021 10 16 0.00 0.00
11:35 am 11:35 Cloudy 48 9 39 4 71 71 NNW 5 7 30.13 1020 10 16 0.00 0.00
11:55 am 11:55 Cloudy with Light Rain 48 9 39 4 71 71 NNW 5 7 30.13 1020 10 16 0.00 0.00
12:15 pm 12:15 Cloudy 48 9 39 4 71 71 Calm 30.12 1020 10 16 0.00 0.00
12:35 pm 12:35 Cloudy 48 9 39 4 71 71 NE 5 7 30.10 1019 10 16 0.00 0.00
12:55 pm 12:55 Cloudy 48 9 41 5 76 76 Calm 30.09 1019 10 16 0.00 0.00
1:15 pm 13:15 Cloudy 50 10 41 5 71 71 VRB 3 6 30.08 1019 10 16 0.00 0.00
1:35 pm 13:35 Cloudy 50 10 41 5 71 71 Calm 30.07 1018 10 16 0.00 0.00
1:55 pm 13:55 Cloudy 50 10 41 5 71 71 Calm 30.06 1018 10 16 0.00 0.00
2:15 pm 14:15 Cloudy 50 10 41 5 71 71 Calm 30.06 1018 10 16 0.00 0.00
2:35 pm 14:35 Cloudy with Light Rain 50 10 43 6 76 76 VRB 3 6 30.07 1018 9 14 0.00 0.00
2:55 pm 14:55 Cloudy with Rain 48 9 46 8 94 94 Calm 30.05 1018 2 3 0.05 1.27
3:15 pm 15:15 Cloudy with Light Rain 48 9 45 7 87 87 Calm 30.03 1017 7 11 0.00 0.00
3:35 pm 15:35 Mostly Cloudy with Rain 48 9 45 7 87 87 Calm 30.05 1018 2 3 0.00 0.00
3:55 pm 15:55 Cloudy with Rain 46 8 45 7 93 93 Calm 30.06 1018 2 2 0.14 3.56
4:15 pm 16:15 Cloudy with Light Rain 46 8 45 7 93 93 NNE 3 6 30.04 1017 2 3 0.00 0.00
4:35 pm 16:35 Cloudy with Rain 46 8 46 8 100 100 Calm 30.05 1017 2 3 0.00 0.00
4:55 pm 16:55 Cloudy with Rain 46 8 46 8 100 100 NE 5 7 30.02 1016 2 3 0.23 5.84
5:15 pm 17:15 Cloudy with Rain 46 8 46 8 100 100 Calm 30.03 1017 3 4 0.00 0.00
5:35 pm 17:35 Cloudy with Heavy Rain 46 8 46 8 100 100 E 5 7 30.00 1016 1 2 0.00 0.00
5:55 pm 17:55 Cloudy with Light Rain 46 8 46 8 100 100 Calm 29.99 1015 3 4 0.19 4.83
6:15 pm 18:15 Cloudy with Light Rain 48 9 46 8 94 94 Calm 29.98 1015 5 8 0.00 0.00
6:35 pm 18:35 Cloudy 48 9 46 8 94 94 Calm 29.99 1016 9 14 0.00 0.00
6:55 pm 18:55 Cloudy 48 9 46 8 94 94 Calm 29.99 1016 10 16 0.01 0.25
7:15 pm 19:15 Cloudy with Light Rain 48 9 46 8 94 94 Calm 29.99 1016 4 6 0.00 0.00
7:35 pm 19:35 Cloudy with Light Rain 48 9 46 8 94 94 Calm 29.97 1015 6 10 0.00 0.00
7:55 pm 19:55 Cloudy with Light Rain 48 9 46 8 94 94 E 3 6 29.96 1015 6 10 0.05 1.27
8:15 pm 20:15 Cloudy with Light Rain 48 9 48 9 100 100 E 5 7 29.95 1014 5 8 0.00 0.00
8:35 pm 20:35 Cloudy with Light Rain 48 9 48 9 100 100 E 3 6 29.95 1014 4 6 0.00 0.00
8:55 pm 20:55 Cloudy with Light Rain 48 9 48 9 100 100 Calm 29.95 1014 5 8 0.03 0.76
9:15 pm 21:15 Cloudy with Light Rain 50 10 48 9 94 94 Calm 29.96 1015 6 10 0.00 0.00
9:35 pm 21:35 Cloudy with Light Rain 50 10 48 9 94 94 WNW 6 9 30.00 1016 5 8 0.00 0.00
9:55 pm 21:55 Cloudy with Light Rain 48 9 48 9 100 100 Calm 30.00 1016 6 10 0.02 0.51
10:15 pm 22:15 Cloudy with Light Rain 48 9 48 9 100 100 NE 6 9 29.99 1016 3 4 0.00 0.00
10:35 pm 22:35 Cloudy with Light Rain 48 9 46 8 94 94 VRB 5 7 29.99 1016 4 6 0.00 0.00
10:55 pm 22:55 Cloudy with Light Rain 48 9 46 8 94 94 Calm 29.99 1016 4 6 0.01 0.25
11:15 pm 23:15 Cloudy with Light Rain 48 9 46 8 94 94 NNE 7 11 29.98 1015 3 4 0.00 0.00
11:35 pm 23:35 Cloudy with Light Rain 48 9 46 8 94 94 VRB 6 9 29.97 1015 3 5 0.00 0.00
11:55 pm 23:55 Cloudy with Mist and Fog 48 9 46 8 94 94 Calm 29.96 1015 3 5 0.01 0.25

Powered by AerisWeather